Dewpoint
68 70 74 75 75 75 74 74 75 76 76 77 77 77 76 76 75 76 76 75 75 76 74 74 73 73 72 73 73 72 73 74 74 75 74 74 74 75 75 72 72 68 74
68 71 75 76 75 75 75 74 75 75 75 76 76 76 76 75 75 75 75 74 75 76 74 73 73 73 72 72 72 72 73 74 75 74 74 74 74 75 75 73 73 72 73
68 71 72 76 75 74 75 75 74 74 73 74 74 74 74 74 74 74 73 73 73 74 74 73 72 72 71 71 71 72 73 74 74 73 74 71 71 74 74 73 73 74 74
67 70 72 76 75 74 74 75 75 73 73 73 73 73 73 73 73 73 73 73 73 73 73 73 71 71 71 71 71 72 72 75 74 72 71 70 70 74 74 73 73 74 75
67 68 71 76 75 74 73 73 73 73 73 73 73 72 72 72 72 72 73 73 72 73 72 71 71 71 71 71 71 72 72 71 72 70 70 70 70 72 74 74 74 74 74
68 70 74 75 74 74 73 73 73 73 73 72 72 72 71 71 71 71 71 71 71 71 72 71 71 71 71 71 71 71 71 71 69 71 70 72 70 74 74 73 72 74 74
70 71 72 76 75 74 75 75 73 73 73 73 73 72 72 71 71 71 71 71 71 71 71 72 71 70 71 70 70 71 71 70 71 70 71 71 72 75 73 72 74 71 72
70 71 72 76 76 75 74 74 74 74 73 73 73 72 73 73 73 72 72 71 71 71 71 72 72 71 71 70 70 71 71 70 69 68 71 71 75 75 74 73 74 74 73
68 70 72 73 74 75 75 75 75 75 74 74 74 73 74 73 73 72 73 73 73 72 72 72 72 72 71 70 70 70 70 70 71 70 71 73 76 75 74 74 74 73 74
67 69 71 72 73 73 73 75 75 75 75 74 74 74 74 73 73 73 74 73 73 73 72 73 72 73 73 72 71 71 71 72 71 70 72 72 76 74 73 73 74 73 73
66 67 68 70 71 70 72 73 75 74 74 74 74 74 74 73 72 73 74 71 72 73 73 73 73 73 73 73 71 71 70 72 70 71 71 75 76 74 73 73 74 74 74
64 64 65 68 70 70 71 72 73 73 73 73 73 73 74 73 74 74 74 73 71 72 73 73 73 73 73 70 70 71 70 72 73 71 71 75 76 74 74 74 74 74 74
66 66 66 66 68 70 69 72 72 72 72 73 74 73 73 73 73 74 73 73 71 71 71 73 72 71 70 70 70 69 70 72 72 70 71 75 76 75 74 74 74 74 73
61 62 65 66 67 68 69 70 70 70 71 71 72 73 73 72 71 72 73 73 73 72 72 72 72 73 70 70 70 69 68 71 72 71 73 75 76 75 74 73 74 74 73
60 63 65 67 67 69 67 69 69 70 71 71 73 74 74 73 71 73 73 74 74 74 74 73 72 73 72 71 72 70 69 70 70 70 72 75 76 76 75 73 73 73 73
59 64 67 67 68 68 67 69 70 69 70 71 72 73 73 73 73 73 73 73 73 73 72 72 72 72 72 72 70 72 71 72 72 71 70 72 75 76 76 74 74 73 73
60 64 66 67 68 69 67 70 71 70 70 70 72 73 75 74 73 73 73 72 72 73 72 72 73 73 70 72 72 72 73 71 72 72 71 70 73 75 76 75 75 75 74
59 64 66 66 68 68 68 70 72 71 70 73 73 74 73 73 72 72 73 73 71 72 72 71 73 71 71 71 70 71 72 72 72 72 71 71 71 72 75 75 75 75 73
62 63 64 65 67 68 71 71 72 72 71 73 73 72 72 70 75 73 74 72 74 74 71 71 71 71 70 70 71 71 72 72 72 72 71 71 71 72 71 73 73 73 73
63 64 63 66 67 70 72 72 72 72 72 73 71 73 70 71 74 70 72 73 74 71 70 71 69 71 71 71 72 71 72 72 72 70 70 71 72 71 73 71 71 72 73
63 64 65 68 71 70 71 70 70 70 72 73 74 73 73 73 75 73 71 73 71 71 71 69 71 70 70 71 70 70 70 71 71 72 71 71 72 72 73 72 72 72 71
62 63 66 69 72 71 71 70 70 72 70 70 73 72 74 74 74 73 72 73 70 67 71 68 68 69 70 70 67 67 65 67 69 71 71 71 72 72 72 73 72 72 71
62 63 66 70 70 70 69 71 72 72 68 66 62 68 74 74 73 66 67 73 72 72 72 68 68 69 68 70 68 65 63 61 65 69 70 71 71 71 71 72 72 71 71
63 64 65 71 71 69 71 72 68 68 68 69 68 70 73 74 74 72 73 72 72 73 71 70 67 70 70 68 69 70 67 64 62 61 66 69 70 70 70 70 69 70 67
64 65 66 71 71 70 72 72 71 69 70 71 73 72 74 75 74 74 73 72 73 73 72 69 68 70 70 67 66 68 67 68 66 64 61 62 64 66 66 59 57 61 64
64 65 68 69 72 71 72 73 73 71 70 71 71 72 73 74 68 72 75 73 74 74 71 69 68 69 71 70 69 65 65 65 64 66 64 62 61 61 61 58 55 56 61
Lifted_Index
-1 -1 -2 -2 -2 -2 -1 -1 -2 -2 -3 -3 -4 -4 -3 -3 -4 -4 -4 -4 -4 -4 -4 -4 -4 -4 -4 -3 -3 -3 -3 -4 -5 -5 -5 -5 -6 -6 -6 -5 -4 -4 -5
-1 -2 -2 -2 -2 -2 -2 -1 -2 -2 -2 -3 -3 -3 -3 -3 -3 -3 -3 -3 -4 -4 -4 -4 -4 -4 -3 -3 -3 -3 -4 -4 -5 -5 -5 -5 -6 -6 -6 -5 -5 -5 -5
-1 -2 -2 -3 -2 -2 -2 -2 -2 -2 -2 -2 -2 -2 -2 -3 -2 -2 -2 -3 -3 -3 -3 -3 -3 -3 -3 -3 -3 -3 -3 -4 -4 -4 -4 -5 -5 -6 -5 -5 -5 -5 -5
-1 -2 -3 -3 -2 -2 -2 -2 -2 -1 -1 -2 -2 -2 -2 -2 -2 -2 -2 -2 -2 -2 -2 -3 -3 -3 -3 -2 -2 -2 -3 -3 -3 -3 -3 -4 -4 -5 -5 -5 -5 -5 -5
-2 -2 -3 -3 -2 -2 -2 -2 -2 -1 -2 -2 -2 -2 -2 -2 -2 -2 -2 -2 -2 -2 -2 -2 -2 -2 -2 -2 -2 -2 -2 -2 -2 -2 -3 -3 -4 -5 -5 -5 -5 -5 -5
-3 -3 -3 -3 -3 -2 -2 -2 -2 -2 -2 -2 -2 -2 -2 -2 -2 -2 -2 -2 -2 -2 -2 -2 -1 -1 -1 -2 -2 -2 -1 -1 -1 -1 -2 -3 -4 -5 -5 -5 -5 -5 -5
-3 -4 -4 -4 -3 -3 -3 -2 -2 -2 -2 -2 -2 -2 -2 -2 -2 -2 -2 -2 -2 -2 -2 -2 -2 -1 -1 -1 -2 -2 -2 -1 -1 -1 -2 -3 -4 -5 -5 -5 -5 -5 -4
-4 -4 -4 -4 -4 -3 -3 -3 -2 -2 -2 -2 -2 -2 -2 -3 -3 -3 -3 -3 -3 -2 -2 -2 -2 -1 -1 -1 -1 -2 -2 -2 -1 -1 -2 -3 -4 -5 -5 -5 -5 -5 -5
-3 -3 -4 -4 -4 -4 -3 -3 -3 -3 -3 -3 -3 -3 -3 -3 -3 -3 -3 -3 -3 -3 -2 -2 -2 -2 -1 -1 -1 -2 -2 -2 -1 -1 -2 -3 -4 -4 -4 -5 -5 -5 -5
-3 -3 -3 -4 -3 -3 -3 -3 -3 -3 -3 -3 -3 -3 -3 -3 -3 -3 -3 -3 -3 -3 -3 -2 -2 -2 -2 -2 -1 -2 -2 -2 -1 -1 -2 -3 -4 -4 -4 -4 -5 -5 -5
-2 -2 -3 -3 -3 -3 -3 -3 -3 -3 -3 -3 -3 -3 -3 -3 -3 -3 -3 -2 -2 -3 -3 -3 -3 -3 -3 -2 -2 -2 -2 -1 -1 -1 -2 -3 -4 -4 -4 -4 -4 -5 -5
-1 -2 -2 -2 -2 -2 -3 -3 -3 -3 -3 -3 -3 -3 -2 -2 -2 -3 -2 -2 -1 -2 -3 -3 -3 -3 -2 -2 -2 -1 -1 -1 -1 -1 -2 -4 -4 -4 -4 -4 -4 -4 -4
-1 -1 -1 -1 -2 -2 -3 -3 -3 -3 -3 -3 -3 -3 -2 -2 -2 -2 -2 -2 -2 -1 -2 -2 -3 -2 -2 -2 -1 -1 -1 -1 -1 -1 -2 -3 -4 -4 -4 -4 -4 -4 -4
-1 -1 -1 -1 -1 -2 -2 -2 -2 -2 -2 -2 -3 -3 -3 -2 -2 -2 -2 -2 -2 -2 -1 -2 -2 -2 -2 -2 -1 -1 -0 -1 -1 -1 -2 -3 -4 -4 -4 -4 -4 -4 -4
-0 -1 -1 -1 -1 -2 -2 -2 -2 -2 -3 -3 -3 -3 -3 -2 -2 -2 -2 -2 -2 -2 -1 -2 -2 -2 -2 -2 -2 -1 -0 -0 -1 -1 -2 -3 -4 -4 -4 -4 -4 -4 -4
-0 -1 -1 -1 -1 -2 -2 -2 -3 -3 -3 -3 -4 -4 -4 -3 -3 -3 -3 -3 -2 -2 -2 -2 -2 -2 -2 -2 -2 -2 -1 -1 -1 -1 -1 -2 -3 -4 -4 -3 -3 -3 -3
-1 -1 -2 -2 -2 -2 -2 -2 -3 -3 -4 -4 -4 -4 -4 -4 -4 -4 -3 -3 -3 -3 -2 -2 -2 -2 -2 -2 -2 -2 -2 -2 -1 -1 -1 -1 -2 -3 -3 -3 -3 -3 -3
-1 -2 -2 -2 -2 -2 -2 -3 -3 -3 -3 -4 -4 -4 -4 -4 -4 -4 -4 -3 -3 -3 -3 -2 -2 -2 -2 -1 -1 -1 -2 -2 -1 -1 -1 -1 -1 -2 -3 -3 -3 -3 -3
-2 -2 -3 -3 -3 -3 -3 -4 -4 -4 -3 -3 -3 -3 -3 -3 -4 -4 -4 -4 -3 -3 -3 -3 -2 -2 -2 -2 -2 -2 -2 -2 -2 -1 -1 -1 -1 -1 -2 -2 -2 -2 -2
-2 -2 -3 -3 -4 -4 -4 -4 -4 -4 -4 -3 -3 -2 -3 -3 -4 -4 -3 -3 -3 -3 -3 -3 -2 -2 -2 -2 -2 -2 -2 -2 -2 -1 -1 -1 -1 -1 -1 -1 -1 -1 -1
-2 -2 -3 -4 -5 -5 -5 -5 -4 -4 -4 -4 -3 -3 -4 -4 -5 -4 -3 -3 -3 -3 -3 -3 -3 -2 -2 -2 -2 -1 -2 -2 -2 -2 -1 -1 -1 -2 -2 -2 -2 -1 -1
-2 -2 -3 -4 -5 -5 -5 -5 -5 -5 -4 -4 -4 -4 -5 -5 -5 -4 -4 -4 -3 -2 -3 -3 -3 -3 -2 -2 -1 -1 -1 -1 -2 -2 -2 -2 -2 -2 -2 -2 -2 -1 -1
-3 -3 -4 -5 -5 -5 -5 -5 -5 -5 -4 -3 -3 -4 -6 -6 -5 -5 -5 -4 -4 -3 -3 -3 -3 -3 -3 -2 -2 -1 -1 -1 -1 -1 -2 -2 -2 -2 -2 -1 -1 -1 -1
-3 -3 -4 -5 -5 -5 -5 -6 -5 -5 -5 -4 -4 -4 -6 -6 -6 -6 -5 -5 -4 -4 -3 -2 -2 -3 -3 -2 -2 -1 -1 -1 -1 -1 -2 -2 -2 -2 -1 -1 -1 -0 -0
-4 -4 -5 -6 -6 -5 -6 -6 -6 -5 -5 -5 -6 -6 -6 -7 -6 -6 -6 -5 -5 -4 -3 -2 -2 -3 -3 -2 -2 -1 -1 -1 -1 -1 -1 -1 -1 -1 0 1 1 1 1
-4 -4 -5 -6 -6 -6 -6 -6 -6 -5 -5 -6 -6 -7 -7 -6 -6 -6 -6 -5 -5 -5 -4 -2 -2 -3 -3 -3 -2 -1 -1 -1 -1 -1 -0 -0 0 1 1 2 2 3 3